Kezdőlap
METAR-TAF:

METAR-TAF

Repülőterek :

Maple Lake Municipal Airport

Maple Lake, Minnesota, Amerikai Egyesült Államok

földrajzi szélesség: 45-14-10N, földrajzi hosszúság: 093-59-08W, magasság: 313 m

Jelenlegi meteorológiai megfigyelések

A jelentés 15 perccel ezelõtt készült, 20:55 UTC
Nyugat-délnyugati szél 3 kt
Hőmérséklet 21°C
Páratartalom 40%
Légköri nyomás 1024 hPa
Látótávolság: 16.1 km
Derült ég

METAR: KMGG 222055Z AUTO 25003KT 10SM CLR 21/07 A3024 RMK AO2 T02090074

Idő: 16:10 (21:10 UTC)


TAF: hiányzik

Meteorológiai megfigyelések és előrejelzések több, mint 4000 repülőtéren (METAR és TAF jelentéseket).

A térképen piros és sárga pontok jelzik az elérhető meteorológiai állomásokat.

Mozgassa az egeret a pont fölött, hogy megjelenjen az állomás neve.

Azután kattintson az időjárási megfigyelések és előrejelzések megtekintéséhez.

A térkép megváltoztatása: kattintson a fekete keresztel jelölt zöld gombra ráközelítéshez, a vonallal jelölt zöld gombra távolításhoz, vagy a zöld nyilakra a szomszédos térképek eléréséhez.


METAR-TAF: